Year,Month,Day,Hour,Minute,Value (Times are PST for temperature in C)
2006,07,20,00,00,11.10
2006,07,20,00,01,11.10
2006,07,20,00,02,11.10
2006,07,20,00,03,11.10
2006,07,20,00,04,11.10
2006,07,20,00,05,11.10
2006,07,20,00,06,11.10
2006,07,20,00,07,11.10
2006,07,20,00,08,11.10
2006,07,20,00,09,11.10
2006,07,20,00,10,11.10
2006,07,20,00,11,11.10
2006,07,20,00,12,11.10
2006,07,20,00,13,11.10
2006,07,20,00,14,11.10
2006,07,20,00,15,11.10
2006,07,20,00,16,11.10
2006,07,20,00,17,11.10
2006,07,20,00,18,11.10
2006,07,20,00,19,11.10
2006,07,20,00,20,11.10
2006,07,20,00,21,11.10
2006,07,20,00,22,11.10
2006,07,20,00,23,11.10
2006,07,20,00,24,11.10
2006,07,20,00,25,11.00
2006,07,20,00,26,10.90
2006,07,20,00,27,10.90
2006,07,20,00,28,10.90
2006,07,20,00,29,10.90
2006,07,20,00,30,10.90
2006,07,20,00,31,10.90
2006,07,20,00,32,10.90
2006,07,20,00,33,10.90
2006,07,20,00,34,10.90
2006,07,20,00,35,10.90
2006,07,20,00,36,10.90
2006,07,20,00,37,10.90
2006,07,20,00,38,10.90
2006,07,20,00,39,10.90
2006,07,20,00,40,10.90
2006,07,20,00,41,10.90
2006,07,20,00,42,10.90
2006,07,20,00,43,10.90
2006,07,20,00,44,10.90
2006,07,20,00,45,10.90
2006,07,20,00,46,10.90
2006,07,20,00,47,10.90
2006,07,20,00,48,10.90
2006,07,20,00,49,10.90
2006,07,20,00,50,10.90
2006,07,20,00,51,10.90
2006,07,20,00,52,10.90
2006,07,20,00,53,10.90
2006,07,20,00,54,10.90
2006,07,20,00,55,10.90
2006,07,20,00,56,10.80
2006,07,20,00,57,10.80
2006,07,20,00,58,10.80
2006,07,20,00,59,10.70
2006,07,20,01,00,10.70
2006,07,20,01,01,10.70
2006,07,20,01,02,10.60
2006,07,20,01,03,10.60
2006,07,20,01,04,10.60
2006,07,20,01,05,10.60
2006,07,20,01,06,10.60
2006,07,20,01,07,10.60
2006,07,20,01,08,10.60
2006,07,20,01,09,10.50
2006,07,20,01,10,10.40
2006,07,20,01,11,10.40
2006,07,20,01,12,10.40
2006,07,20,01,13,10.40
2006,07,20,01,14,10.40
2006,07,20,01,15,10.40
2006,07,20,01,16,10.40
2006,07,20,01,17,10.40
2006,07,20,01,18,10.40
2006,07,20,01,19,10.40
2006,07,20,01,20,10.40
2006,07,20,01,21,10.40
2006,07,20,01,22,10.40
2006,07,20,01,23,10.40
2006,07,20,01,24,10.40
2006,07,20,01,25,10.40
2006,07,20,01,26,10.40
2006,07,20,01,27,10.40
2006,07,20,01,28,10.40
2006,07,20,01,29,10.40
2006,07,20,01,30,10.40
2006,07,20,01,31,10.40
2006,07,20,01,32,10.40
2006,07,20,01,33,10.40
2006,07,20,01,34,10.40
2006,07,20,01,35,10.40
2006,07,20,01,36,10.30
2006,07,20,01,37,10.30
2006,07,20,01,38,10.30
2006,07,20,01,39,10.30
2006,07,20,01,40,10.30
2006,07,20,01,41,10.30
2006,07,20,01,42,10.30
2006,07,20,01,43,10.30
2006,07,20,01,44,10.30
2006,07,20,01,45,10.30
2006,07,20,01,46,10.30
2006,07,20,01,47,10.30
2006,07,20,01,48,10.20
2006,07,20,01,49,10.20
2006,07,20,01,50,10.20
2006,07,20,01,51,10.20
2006,07,20,01,52,10.20
2006,07,20,01,53,10.20
2006,07,20,01,54,10.20
2006,07,20,01,55,10.20
2006,07,20,01,56,10.20
2006,07,20,01,57,10.20
2006,07,20,01,58,10.20
2006,07,20,01,59,10.20
2006,07,20,02,00,10.20
2006,07,20,02,01,10.20
2006,07,20,02,02,10.20
2006,07,20,02,03,10.10
2006,07,20,02,04,10.10
2006,07,20,02,05,10.10
2006,07,20,02,06,10.10
2006,07,20,02,07,10.10
2006,07,20,02,08,10.10
2006,07,20,02,09,10.10
2006,07,20,02,10,10.10
2006,07,20,02,11,10.10
2006,07,20,02,12,10.00
2006,07,20,02,13,9.90
2006,07,20,02,14,9.90
2006,07,20,02,15,9.90
2006,07,20,02,16,9.90
2006,07,20,02,17,9.90
2006,07,20,02,18,9.90
2006,07,20,02,19,9.90
2006,07,20,02,20,9.90
2006,07,20,02,21,9.90
2006,07,20,02,22,9.90
2006,07,20,02,23,9.90
2006,07,20,02,24,9.90
2006,07,20,02,25,9.90
2006,07,20,02,26,9.90
2006,07,20,02,27,9.90
2006,07,20,02,28,9.90
2006,07,20,02,29,9.90
2006,07,20,02,30,9.90
2006,07,20,02,31,9.90
2006,07,20,02,32,9.90
2006,07,20,02,33,9.90
2006,07,20,02,34,9.90
2006,07,20,02,35,9.90
2006,07,20,02,36,9.80
2006,07,20,02,37,9.80
2006,07,20,02,38,9.80
2006,07,20,02,39,9.70
2006,07,20,02,40,9.70
2006,07,20,02,41,9.70
2006,07,20,02,42,9.70
2006,07,20,02,43,9.80
2006,07,20,02,44,9.80
2006,07,20,02,45,9.80
2006,07,20,02,46,9.80
2006,07,20,02,47,9.90
2006,07,20,02,48,9.90
2006,07,20,02,49,9.90
2006,07,20,02,50,9.90
2006,07,20,02,51,9.90
2006,07,20,02,52,9.90
2006,07,20,02,53,9.90
2006,07,20,02,54,9.90
2006,07,20,02,55,9.80
2006,07,20,02,56,9.80
2006,07,20,02,57,9.80
2006,07,20,02,58,9.80
2006,07,20,02,59,9.70
2006,07,20,03,00,9.70
2006,07,20,03,01,9.70
2006,07,20,03,02,9.70
2006,07,20,03,03,9.70
2006,07,20,03,04,9.70
2006,07,20,03,05,9.60
2006,07,20,03,06,9.60
2006,07,20,03,07,9.60
2006,07,20,03,08,9.60
2006,07,20,03,09,9.60
2006,07,20,03,10,9.60
2006,07,20,03,11,9.60
2006,07,20,03,12,9.60
2006,07,20,03,13,9.70
2006,07,20,03,14,9.70
2006,07,20,03,15,9.70
2006,07,20,03,16,9.70
2006,07,20,03,17,9.70
2006,07,20,03,18,9.70
2006,07,20,03,19,9.70
2006,07,20,03,20,9.70
2006,07,20,03,21,9.70
2006,07,20,03,22,9.70
2006,07,20,03,23,9.70
2006,07,20,03,24,9.70
2006,07,20,03,25,9.70
2006,07,20,03,26,9.70
2006,07,20,03,27,9.70
2006,07,20,03,28,9.70
2006,07,20,03,29,9.70
2006,07,20,03,30,9.70
2006,07,20,03,31,9.70
2006,07,20,03,32,9.70
2006,07,20,03,33,9.70
2006,07,20,03,34,9.70
2006,07,20,03,35,9.60
2006,07,20,03,36,9.60
2006,07,20,03,37,9.60
2006,07,20,03,38,9.50
2006,07,20,03,39,9.50
2006,07,20,03,40,9.50
2006,07,20,03,41,9.40
2006,07,20,03,42,9.40
2006,07,20,03,43,9.40
2006,07,20,03,44,9.40
2006,07,20,03,45,9.40
2006,07,20,03,46,9.40
2006,07,20,03,47,9.40
2006,07,20,03,48,9.50
2006,07,20,03,49,9.50
2006,07,20,03,50,9.50
2006,07,20,03,51,9.60
2006,07,20,03,52,9.60
2006,07,20,03,53,9.50
2006,07,20,03,54,9.50
2006,07,20,03,55,9.50
2006,07,20,03,56,9.40
2006,07,20,03,57,9.40
2006,07,20,03,58,9.40
2006,07,20,03,59,9.30
2006,07,20,04,00,9.30
2006,07,20,04,01,9.30
2006,07,20,04,02,9.30
2006,07,20,04,03,9.30
2006,07,20,04,04,9.30
2006,07,20,04,05,9.30
2006,07,20,04,06,9.20
2006,07,20,04,07,9.30
2006,07,20,04,08,9.30
2006,07,20,04,09,9.30
2006,07,20,04,10,9.30
2006,07,20,04,11,9.30
2006,07,20,04,12,9.30
2006,07,20,04,13,9.30
2006,07,20,04,14,9.20
2006,07,20,04,15,9.20
2006,07,20,04,16,9.20
2006,07,20,04,17,9.20
2006,07,20,04,18,9.20
2006,07,20,04,19,9.20
2006,07,20,04,20,9.10
2006,07,20,04,21,9.10
2006,07,20,04,22,9.10
2006,07,20,04,23,9.10
2006,07,20,04,24,9.10
2006,07,20,04,25,9.10
2006,07,20,04,26,9.10
2006,07,20,04,27,9.10
2006,07,20,04,28,9.10
2006,07,20,04,29,9.10
2006,07,20,04,30,9.10
2006,07,20,04,31,9.10
2006,07,20,04,32,9.10
2006,07,20,04,33,9.10
2006,07,20,04,34,9.20
2006,07,20,04,35,9.20
2006,07,20,04,36,9.20
2006,07,20,04,37,9.30
2006,07,20,04,38,9.30
2006,07,20,04,39,9.40
2006,07,20,04,40,9.40
2006,07,20,04,41,9.40
2006,07,20,04,42,9.40
2006,07,20,04,43,9.40
2006,07,20,04,44,9.40
2006,07,20,04,45,9.40
2006,07,20,04,46,9.40
2006,07,20,04,47,9.40
2006,07,20,04,48,9.40
2006,07,20,04,49,9.40
2006,07,20,04,50,9.40
2006,07,20,04,51,9.40
2006,07,20,04,52,9.40
2006,07,20,04,53,9.40
2006,07,20,04,54,9.40
2006,07,20,04,55,9.40
2006,07,20,04,56,9.40
2006,07,20,04,57,9.40
2006,07,20,04,58,9.40
2006,07,20,04,59,9.50
2006,07,20,05,00,9.50
2006,07,20,05,01,9.50
2006,07,20,05,02,9.50
2006,07,20,05,03,9.50
2006,07,20,05,04,9.60
2006,07,20,05,05,9.60
2006,07,20,05,06,9.70
2006,07,20,05,07,9.70
2006,07,20,05,08,9.70
2006,07,20,05,09,9.70
2006,07,20,05,10,9.70
2006,07,20,05,11,9.70
2006,07,20,05,12,9.70
2006,07,20,05,13,9.80
2006,07,20,05,14,9.80
2006,07,20,05,15,9.80
2006,07,20,05,16,9.80
2006,07,20,05,17,9.80
2006,07,20,05,18,9.80
2006,07,20,05,19,9.80
2006,07,20,05,20,9.80
2006,07,20,05,21,9.90
2006,07,20,05,22,9.90
2006,07,20,05,23,9.90
2006,07,20,05,24,9.90
2006,07,20,05,25,9.90
2006,07,20,05,26,9.90
2006,07,20,05,27,9.90
2006,07,20,05,28,9.90
2006,07,20,05,29,9.90
2006,07,20,05,30,9.90
2006,07,20,05,31,9.90
2006,07,20,05,32,9.90
2006,07,20,05,33,9.90
2006,07,20,05,34,9.90
2006,07,20,05,35,9.80
2006,07,20,05,36,9.80
2006,07,20,05,37,9.80
2006,07,20,05,38,9.80
2006,07,20,05,39,9.80
2006,07,20,05,40,9.80
2006,07,20,05,41,9.80
2006,07,20,05,42,9.80
2006,07,20,05,43,9.90
2006,07,20,05,44,9.90
2006,07,20,05,45,9.90
2006,07,20,05,46,9.90
2006,07,20,05,47,9.90
2006,07,20,05,48,9.90
2006,07,20,05,49,9.90
2006,07,20,05,50,9.90
2006,07,20,05,51,9.90
2006,07,20,05,52,9.90
2006,07,20,05,53,9.90
2006,07,20,05,54,9.90
2006,07,20,05,55,9.90
2006,07,20,05,56,9.80
2006,07,20,05,57,9.80
2006,07,20,05,58,9.80
2006,07,20,05,59,9.80
2006,07,20,06,00,9.80
2006,07,20,06,01,9.70
2006,07,20,06,02,9.70
2006,07,20,06,03,9.70
2006,07,20,06,04,9.70
2006,07,20,06,05,9.70
2006,07,20,06,06,9.70
2006,07,20,06,07,9.70
2006,07,20,06,08,9.70
2006,07,20,06,09,9.70
2006,07,20,06,10,9.70
2006,07,20,06,11,9.70
2006,07,20,06,12,9.70
2006,07,20,06,13,9.70
2006,07,20,06,14,9.80
2006,07,20,06,15,9.80
2006,07,20,06,16,9.90
2006,07,20,06,17,9.90
2006,07,20,06,18,9.90
2006,07,20,06,19,10.00
2006,07,20,06,20,10.10
2006,07,20,06,21,10.10
2006,07,20,06,22,10.10
2006,07,20,06,23,10.10
2006,07,20,06,24,10.20
2006,07,20,06,25,10.20
2006,07,20,06,26,10.20
2006,07,20,06,27,10.30
2006,07,20,06,28,10.30
2006,07,20,06,29,10.30
2006,07,20,06,30,10.40
2006,07,20,06,31,10.40
2006,07,20,06,32,10.40
2006,07,20,06,33,10.40
2006,07,20,06,34,10.40
2006,07,20,06,35,10.50
2006,07,20,06,36,10.60
2006,07,20,06,37,10.60
2006,07,20,06,38,10.70
2006,07,20,06,39,10.80
2006,07,20,06,40,10.90
2006,07,20,06,41,11.00
2006,07,20,06,42,11.10
2006,07,20,06,43,11.10
2006,07,20,06,44,11.20
2006,07,20,06,45,11.30
2006,07,20,06,46,11.50
2006,07,20,06,47,11.60
2006,07,20,06,48,11.70
2006,07,20,06,49,11.80
2006,07,20,06,50,11.80
2006,07,20,06,51,11.90
2006,07,20,06,52,11.90
2006,07,20,06,53,12.00
2006,07,20,06,54,12.00
2006,07,20,06,55,12.00
2006,07,20,06,56,12.10
2006,07,20,06,57,12.10
2006,07,20,06,58,12.20
2006,07,20,06,59,12.30
2006,07,20,07,00,12.40
2006,07,20,07,01,12.50
2006,07,20,07,02,12.50
2006,07,20,07,03,12.50
2006,07,20,07,04,12.60
2006,07,20,07,05,12.60
2006,07,20,07,06,12.70
2006,07,20,07,07,12.80
2006,07,20,07,08,12.80
2006,07,20,07,09,12.90
2006,07,20,07,10,13.00
2006,07,20,07,11,13.10
2006,07,20,07,12,13.20
2006,07,20,07,13,13.30
2006,07,20,07,14,13.40
2006,07,20,07,15,13.50
2006,07,20,07,16,13.70
2006,07,20,07,17,13.80
2006,07,20,07,18,13.90
2006,07,20,07,19,14.00
2006,07,20,07,20,14.10
2006,07,20,07,21,14.20
2006,07,20,07,22,14.30
2006,07,20,07,23,14.40
2006,07,20,07,24,14.50
2006,07,20,07,25,14.70
2006,07,20,07,26,14.80
2006,07,20,07,27,14.80
2006,07,20,07,28,14.80
2006,07,20,07,29,14.90
2006,07,20,07,30,14.90
2006,07,20,07,31,15.00
2006,07,20,07,32,15.00
2006,07,20,07,33,15.00
2006,07,20,07,34,15.00
2006,07,20,07,35,14.90
2006,07,20,07,36,14.80
2006,07,20,07,37,14.80
2006,07,20,07,38,14.90
2006,07,20,07,39,14.90
2006,07,20,07,40,15.00
2006,07,20,07,41,15.00
2006,07,20,07,42,15.10
2006,07,20,07,43,15.20
2006,07,20,07,44,15.20
2006,07,20,07,45,15.20
2006,07,20,07,46,15.20
2006,07,20,07,47,15.20
2006,07,20,07,48,15.20
2006,07,20,07,49,15.30
2006,07,20,07,50,15.30
2006,07,20,07,51,15.30
2006,07,20,07,52,15.30
2006,07,20,07,53,15.30
2006,07,20,07,54,15.30
2006,07,20,07,55,15.30
2006,07,20,07,56,15.40
2006,07,20,07,57,15.40
2006,07,20,07,58,15.40
2006,07,20,07,59,15.40
2006,07,20,08,00,15.40
2006,07,20,08,01,15.40
2006,07,20,08,02,15.50
2006,07,20,08,03,15.50
2006,07,20,08,04,15.60
2006,07,20,08,05,15.60
2006,07,20,08,06,15.70
2006,07,20,08,07,15.80
2006,07,20,08,08,15.80
2006,07,20,08,09,15.80
2006,07,20,08,10,15.90
2006,07,20,08,11,15.90
2006,07,20,08,12,16.00
2006,07,20,08,13,16.10
2006,07,20,08,14,16.10
2006,07,20,08,15,16.10
2006,07,20,08,16,16.00
2006,07,20,08,17,16.10
2006,07,20,08,18,16.10
2006,07,20,08,19,16.10
2006,07,20,08,20,16.10
2006,07,20,08,21,16.20
2006,07,20,08,22,16.20
2006,07,20,08,23,16.30
2006,07,20,08,24,16.40
2006,07,20,08,25,16.40
2006,07,20,08,26,16.40
2006,07,20,08,27,16.40
2006,07,20,08,28,16.40
2006,07,20,08,29,16.40
2006,07,20,08,30,16.40
2006,07,20,08,31,16.40
2006,07,20,08,32,16.40
2006,07,20,08,33,16.40
2006,07,20,08,34,16.50
2006,07,20,08,35,16.60
2006,07,20,08,36,16.60
2006,07,20,08,37,16.70
2006,07,20,08,38,16.70
2006,07,20,08,39,16.70
2006,07,20,08,40,16.70
2006,07,20,08,41,16.80
2006,07,20,08,42,16.80
2006,07,20,08,43,16.90
2006,07,20,08,44,16.90
2006,07,20,08,45,17.00
2006,07,20,08,46,17.00
2006,07,20,08,47,17.10
2006,07,20,08,48,17.20
2006,07,20,08,49,17.30
2006,07,20,08,50,17.40
2006,07,20,08,51,17.70
2006,07,20,08,52,17.80
2006,07,20,08,53,17.90
2006,07,20,08,54,18.10
2006,07,20,08,55,18.20
2006,07,20,08,56,18.20
2006,07,20,08,57,18.20
2006,07,20,08,58,18.30
2006,07,20,08,59,18.50
2006,07,20,09,00,18.60
2006,07,20,09,01,18.70
2006,07,20,09,02,18.70
2006,07,20,09,03,18.80
2006,07,20,09,04,18.80
2006,07,20,09,05,18.80
2006,07,20,09,06,18.90
2006,07,20,09,10,19.10
2006,07,20,09,11,19.10
2006,07,20,09,12,19.10
2006,07,20,09,13,19.10
2006,07,20,09,14,19.10
2006,07,20,09,15,19.10
2006,07,20,09,16,19.20
2006,07,20,09,17,19.20
2006,07,20,09,18,19.20
2006,07,20,09,19,19.20
2006,07,20,09,20,19.20
2006,07,20,09,21,19.20
2006,07,20,09,22,19.20
2006,07,20,09,23,19.20
2006,07,20,09,24,19.20
2006,07,20,09,25,19.20
2006,07,20,09,26,19.20
2006,07,20,09,27,19.10
2006,07,20,09,28,18.90
2006,07,20,09,29,18.80
2006,07,20,09,30,18.70
2006,07,20,09,31,18.60
2006,07,20,09,32,18.50
2006,07,20,09,33,18.50
2006,07,20,09,34,18.40
2006,07,20,09,35,18.50
2006,07,20,09,36,18.50
2006,07,20,09,37,18.40
2006,07,20,09,38,18.20
2006,07,20,09,39,18.10
2006,07,20,09,40,18.10
2006,07,20,09,41,18.20
2006,07,20,09,42,18.20
2006,07,20,09,43,18.20
2006,07,20,09,44,18.10
2006,07,20,09,45,18.00
2006,07,20,09,46,17.90
2006,07,20,09,47,17.90
2006,07,20,09,48,17.80
2006,07,20,09,49,17.80
2006,07,20,09,50,17.70
2006,07,20,09,51,17.60
2006,07,20,09,52,17.60
2006,07,20,09,53,17.50
2006,07,20,09,54,17.40
2006,07,20,09,55,17.40
2006,07,20,09,56,17.50
2006,07,20,09,57,17.50
2006,07,20,09,58,17.60
2006,07,20,09,59,17.70
2006,07,20,10,00,17.80
2006,07,20,10,01,17.80
2006,07,20,10,02,17.80
2006,07,20,10,03,17.90
2006,07,20,10,04,18.10
2006,07,20,10,05,18.20
2006,07,20,10,06,18.40
2006,07,20,10,07,18.40
2006,07,20,10,08,18.50
2006,07,20,10,09,18.60
2006,07,20,10,10,18.80
2006,07,20,10,11,18.90
2006,07,20,10,12,18.90
2006,07,20,10,13,18.90
2006,07,20,10,14,18.90
2006,07,20,10,15,18.80
2006,07,20,10,16,18.70
2006,07,20,10,17,18.60
2006,07,20,10,18,18.70
2006,07,20,10,19,18.70
2006,07,20,10,20,18.70
2006,07,20,10,21,18.70
2006,07,20,10,22,18.70
2006,07,20,10,23,18.80
2006,07,20,10,24,18.70
2006,07,20,10,25,18.70
2006,07,20,10,26,18.60
2006,07,20,10,27,18.50
2006,07,20,10,28,18.40
2006,07,20,10,29,18.20
2006,07,20,10,30,18.20
2006,07,20,10,31,18.20
2006,07,20,10,32,18.10
2006,07,20,10,33,18.10
2006,07,20,10,34,18.10
2006,07,20,10,35,18.10
2006,07,20,10,36,18.20
2006,07,20,10,37,18.20
2006,07,20,10,38,18.20
2006,07,20,10,39,18.20
2006,07,20,10,40,18.20
2006,07,20,10,41,18.20
2006,07,20,10,42,18.20
2006,07,20,10,43,18.20
2006,07,20,10,44,18.20
2006,07,20,10,45,18.20
2006,07,20,10,46,18.20
2006,07,20,10,47,18.20
2006,07,20,10,48,18.20
2006,07,20,10,49,18.30
2006,07,20,10,50,18.30
2006,07,20,10,51,18.30
2006,07,20,10,52,18.40
2006,07,20,10,53,18.40
2006,07,20,10,54,18.40
2006,07,20,10,55,18.40
2006,07,20,10,56,18.50
2006,07,20,10,57,18.50
2006,07,20,10,58,18.50
2006,07,20,10,59,18.50
2006,07,20,11,00,18.40
2006,07,20,11,01,18.40
2006,07,20,11,02,18.50
2006,07,20,11,03,18.60
2006,07,20,11,04,18.80
2006,07,20,11,05,18.80
2006,07,20,11,06,18.80
2006,07,20,11,07,18.80
2006,07,20,11,08,18.80
2006,07,20,11,09,18.90
2006,07,20,11,10,18.90
2006,07,20,11,11,19.00
2006,07,20,11,12,19.00
2006,07,20,11,13,18.90
2006,07,20,11,14,18.80
2006,07,20,11,15,18.80
2006,07,20,11,16,18.90
2006,07,20,11,17,18.80
2006,07,20,11,18,18.70
2006,07,20,11,19,18.70
2006,07,20,11,20,18.70
2006,07,20,11,21,18.70
2006,07,20,11,22,18.70
2006,07,20,11,23,18.90
2006,07,20,11,24,18.90
2006,07,20,11,25,19.00
2006,07,20,11,26,18.90
2006,07,20,11,27,18.70
2006,07,20,11,28,18.60
2006,07,20,11,29,18.60
2006,07,20,11,30,18.60
2006,07,20,11,31,18.60
2006,07,20,11,32,18.70
2006,07,20,11,33,18.90
2006,07,20,11,34,18.90
2006,07,20,11,35,19.00
2006,07,20,11,36,19.10
2006,07,20,11,37,19.10
2006,07,20,11,38,19.10
2006,07,20,11,39,19.10
2006,07,20,11,40,19.20
2006,07,20,11,41,19.30
2006,07,20,11,42,19.30
2006,07,20,11,43,19.40
2006,07,20,11,44,19.50
2006,07,20,11,45,19.60
2006,07,20,11,46,19.60
2006,07,20,11,47,19.50
2006,07,20,11,48,19.40
2006,07,20,11,49,19.20
2006,07,20,11,50,19.10
2006,07,20,11,51,18.90
2006,07,20,11,52,19.10
2006,07,20,11,53,19.10
2006,07,20,11,54,19.10
2006,07,20,11,55,19.20
2006,07,20,11,56,19.20
2006,07,20,11,57,19.30
2006,07,20,11,58,19.40
2006,07,20,11,59,19.50
2006,07,20,12,00,19.50
2006,07,20,12,01,19.80
2006,07,20,12,02,20.00
2006,07,20,12,03,20.30
2006,07,20,12,04,20.50
2006,07,20,12,05,20.60
2006,07,20,12,06,20.70
2006,07,20,12,07,20.80
2006,07,20,12,08,21.00
2006,07,20,12,09,21.00
2006,07,20,12,10,21.00
2006,07,20,12,11,21.00
2006,07,20,12,12,21.10
2006,07,20,12,13,21.00
2006,07,20,12,14,20.80
2006,07,20,12,15,20.60
2006,07,20,12,16,20.50
2006,07,20,12,17,20.40
2006,07,20,12,18,20.30
2006,07,20,12,19,20.20
2006,07,20,12,20,20.40
2006,07,20,12,21,20.50
2006,07,20,12,22,20.50
2006,07,20,12,23,20.50
2006,07,20,12,24,20.50
2006,07,20,12,25,20.70
2006,07,20,12,26,21.00
2006,07,20,12,27,21.20
2006,07,20,12,28,21.10
2006,07,20,12,29,21.10
2006,07,20,12,30,21.20
2006,07,20,12,31,21.20
2006,07,20,12,32,21.30
2006,07,20,12,33,21.30
2006,07,20,12,34,21.40
2006,07,20,12,35,21.40
2006,07,20,12,36,21.30
2006,07,20,12,37,21.20
2006,07,20,12,38,21.10
2006,07,20,12,39,21.20
2006,07,20,12,40,21.00
2006,07,20,12,41,21.00
2006,07,20,12,42,21.00
2006,07,20,12,43,21.10
2006,07,20,12,44,21.00
2006,07,20,12,45,21.00
2006,07,20,12,46,20.80
2006,07,20,12,47,20.70
2006,07,20,12,48,20.70
2006,07,20,12,49,20.70
2006,07,20,12,50,20.90
2006,07,20,12,51,21.00
2006,07,20,12,52,21.20
2006,07,20,12,53,21.20
2006,07,20,12,54,21.20
2006,07,20,12,55,21.30
2006,07,20,12,56,21.40
2006,07,20,12,57,21.40
2006,07,20,12,58,21.30
2006,07,20,12,59,21.30
2006,07,20,13,00,21.30
2006,07,20,13,01,21.30
2006,07,20,13,02,21.30
2006,07,20,13,03,21.40
2006,07,20,13,04,21.50
2006,07,20,13,05,21.60
2006,07,20,13,06,21.60
2006,07,20,13,07,21.60
2006,07,20,13,08,21.70
2006,07,20,13,09,22.00
2006,07,20,13,10,22.20
2006,07,20,13,11,22.20
2006,07,20,13,12,22.20
2006,07,20,13,13,22.20
2006,07,20,13,14,22.20
2006,07,20,13,15,22.20
2006,07,20,13,16,22.20
2006,07,20,13,17,22.20
2006,07,20,13,18,22.30
2006,07,20,13,19,22.60
2006,07,20,13,20,22.60
2006,07,20,13,21,22.30
2006,07,20,13,22,22.10
2006,07,20,13,23,22.00
2006,07,20,13,24,21.80
2006,07,20,13,25,21.80
2006,07,20,13,26,21.80
2006,07,20,13,27,21.80
2006,07,20,13,28,21.70
2006,07,20,13,29,21.60
2006,07,20,13,30,21.60
2006,07,20,13,31,21.60
2006,07,20,13,32,21.60
2006,07,20,13,33,21.60
2006,07,20,13,34,21.70
2006,07,20,13,35,21.80
2006,07,20,13,36,21.90
2006,07,20,13,37,21.90
2006,07,20,13,38,21.90
2006,07,20,13,39,21.90
2006,07,20,13,40,21.90
2006,07,20,13,41,21.80
2006,07,20,13,42,21.80
2006,07,20,13,43,21.80
2006,07,20,13,44,21.80
2006,07,20,13,45,21.80
2006,07,20,13,46,21.90
2006,07,20,13,47,22.00
2006,07,20,13,48,22.00
2006,07,20,13,49,22.40
2006,07,20,13,50,22.50
2006,07,20,13,51,22.50
2006,07,20,13,52,22.50
2006,07,20,13,53,22.50
2006,07,20,13,54,22.50
2006,07,20,13,55,22.60
2006,07,20,13,56,22.70
2006,07,20,13,57,22.90
2006,07,20,13,58,22.90
2006,07,20,13,59,22.90
2006,07,20,14,00,23.10
2006,07,20,14,01,23.10
2006,07,20,14,02,23.10
2006,07,20,14,03,23.10
2006,07,20,14,04,23.00
2006,07,20,14,05,22.80
2006,07,20,14,06,22.70
2006,07,20,14,07,22.70
2006,07,20,14,08,22.80
2006,07,20,14,09,22.90
2006,07,20,14,10,23.10
2006,07,20,14,11,23.20
2006,07,20,14,12,23.30
2006,07,20,14,13,23.30
2006,07,20,14,14,23.10
2006,07,20,14,15,22.80
2006,07,20,14,16,22.60
2006,07,20,14,17,22.60
2006,07,20,14,18,22.80
2006,07,20,14,19,22.90
2006,07,20,14,20,22.90
2006,07,20,14,21,22.90
2006,07,20,14,22,22.90
2006,07,20,14,23,22.90
2006,07,20,14,24,22.70
2006,07,20,14,25,22.60
2006,07,20,14,26,22.70
2006,07,20,14,27,22.80
2006,07,20,14,28,23.00
2006,07,20,14,29,23.10
2006,07,20,14,30,23.20
2006,07,20,14,31,23.10
2006,07,20,14,32,23.00
2006,07,20,14,33,22.80
2006,07,20,14,34,22.60
2006,07,20,14,35,22.50
2006,07,20,14,36,22.50
2006,07,20,14,37,22.60
2006,07,20,14,38,22.60
2006,07,20,14,39,22.70
2006,07,20,14,40,22.90
2006,07,20,14,41,22.90
2006,07,20,14,42,22.90
2006,07,20,14,43,22.90
2006,07,20,14,44,23.10
2006,07,20,14,45,23.10
2006,07,20,14,46,23.10
2006,07,20,14,47,23.00
2006,07,20,14,48,23.00
2006,07,20,14,49,23.10
2006,07,20,14,50,23.30
2006,07,20,14,51,23.40
2006,07,20,14,52,23.70
2006,07,20,14,53,23.90
2006,07,20,14,54,24.10
2006,07,20,14,55,24.30
2006,07,20,14,56,24.50
2006,07,20,14,57,24.50
2006,07,20,14,58,24.70
2006,07,20,14,59,24.80
2006,07,20,15,00,24.90
2006,07,20,15,01,24.90
2006,07,20,15,02,25.20
2006,07,20,15,03,25.20
2006,07,20,15,04,25.00
2006,07,20,15,05,24.80
2006,07,20,15,06,24.80
2006,07,20,15,07,24.70
2006,07,20,15,08,24.80
2006,07,20,15,09,24.90
2006,07,20,15,10,24.90
2006,07,20,15,11,24.70
2006,07,20,15,12,24.70
2006,07,20,15,13,24.60
2006,07,20,15,14,24.60
2006,07,20,15,15,24.60
2006,07,20,15,16,24.70
2006,07,20,15,17,24.50
2006,07,20,15,18,24.40
2006,07,20,15,19,24.40
2006,07,20,15,20,24.40
2006,07,20,15,21,24.50
2006,07,20,15,22,24.60
2006,07,20,15,23,24.40
2006,07,20,15,24,24.20
2006,07,20,15,25,24.10
2006,07,20,15,26,24.10
2006,07,20,15,27,24.10
2006,07,20,15,28,24.20
2006,07,20,15,29,24.40
2006,07,20,15,30,24.40
2006,07,20,15,31,24.50
2006,07,20,15,32,24.60
2006,07,20,15,33,24.60
2006,07,20,15,34,24.40
2006,07,20,15,35,24.30
2006,07,20,15,36,24.40
2006,07,20,15,37,24.30
2006,07,20,15,38,24.40
2006,07,20,15,39,24.20
2006,07,20,15,40,24.10
2006,07,20,15,41,24.10
2006,07,20,15,42,24.30
2006,07,20,15,43,24.30
2006,07,20,15,44,24.10
2006,07,20,15,45,23.90
2006,07,20,15,46,23.80
2006,07,20,15,47,23.90
2006,07,20,15,48,24.00
2006,07,20,15,49,24.00
2006,07,20,15,50,24.00
2006,07,20,15,51,23.90
2006,07,20,15,52,23.90
2006,07,20,15,53,23.90
2006,07,20,15,54,23.90
2006,07,20,15,55,24.10
2006,07,20,15,56,24.10
2006,07,20,15,57,24.10
2006,07,20,15,58,24.00
2006,07,20,15,59,23.80
2006,07,20,16,00,23.80
2006,07,20,16,01,23.90
2006,07,20,16,02,24.10
2006,07,20,16,03,24.20
2006,07,20,16,04,24.30
2006,07,20,16,05,24.50
2006,07,20,16,06,24.70
2006,07,20,16,07,24.60
2006,07,20,16,08,24.50
2006,07,20,16,09,24.40
2006,07,20,16,10,24.40
2006,07,20,16,11,24.30
2006,07,20,16,12,24.30
2006,07,20,16,13,24.20
2006,07,20,16,14,24.10
2006,07,20,16,15,24.10
2006,07,20,16,16,24.00
2006,07,20,16,17,24.20
2006,07,20,16,18,24.30
2006,07,20,16,19,24.30
2006,07,20,16,20,24.30
2006,07,20,16,21,24.10
2006,07,20,16,22,24.10
2006,07,20,16,23,24.20
2006,07,20,16,24,24.20
2006,07,20,16,25,24.20
2006,07,20,16,26,24.20
2006,07,20,16,27,24.10
2006,07,20,16,28,24.10
2006,07,20,16,29,24.10
2006,07,20,16,30,24.10
2006,07,20,16,31,24.00
2006,07,20,16,32,24.10
2006,07,20,16,33,24.10
2006,07,20,16,34,24.10
2006,07,20,16,35,24.10
2006,07,20,16,36,24.10
2006,07,20,16,37,24.20
2006,07,20,16,38,24.20
2006,07,20,16,39,24.10
2006,07,20,16,40,24.10
2006,07,20,16,41,24.10
2006,07,20,16,42,24.20
2006,07,20,16,43,24.40
2006,07,20,16,44,24.60
2006,07,20,16,45,24.80
2006,07,20,16,46,25.00
2006,07,20,16,47,25.00
2006,07,20,16,48,25.00
2006,07,20,16,49,25.00
2006,07,20,16,50,25.00
2006,07,20,16,51,24.80
2006,07,20,16,52,24.80
2006,07,20,16,53,25.00
2006,07,20,16,54,25.00
2006,07,20,16,55,24.90
2006,07,20,16,56,24.90
2006,07,20,16,57,25.00
2006,07,20,16,58,25.10
2006,07,20,16,59,25.30
2006,07,20,17,00,25.50
2006,07,20,17,01,25.70
2006,07,20,17,02,25.60
2006,07,20,17,03,25.50
2006,07,20,17,04,25.50
2006,07,20,17,05,25.40
2006,07,20,17,06,25.30
2006,07,20,17,07,25.20
2006,07,20,17,08,25.20
2006,07,20,17,09,25.20
2006,07,20,17,10,25.20
2006,07,20,17,11,25.20
2006,07,20,17,12,25.10
2006,07,20,17,13,24.90
2006,07,20,17,14,24.80
2006,07,20,17,15,24.70
2006,07,20,17,16,24.50
2006,07,20,17,17,24.50
2006,07,20,17,18,24.60
2006,07,20,17,19,24.70
2006,07,20,17,20,24.70
2006,07,20,17,21,24.60
2006,07,20,17,22,24.50
2006,07,20,17,23,24.40
2006,07,20,17,24,24.30
2006,07,20,17,25,24.30
2006,07,20,17,26,24.30
2006,07,20,17,27,24.30
2006,07,20,17,28,24.20
2006,07,20,17,29,24.20
2006,07,20,17,30,24.30
2006,07,20,17,31,24.30
2006,07,20,17,32,24.20
2006,07,20,17,33,24.20